St. Charles, IL

5:42 AM CDT on October 19, 2017 (GMT -0500)
Saint Charles County Smartt

Weather History for KSET - January, 2013

Change the Weather History Date:

Thursday, January 10, 2013

  Actual Average (KSTL) Record (KSTL)
Temperature  
Mean Temperature 44 °F -  
Max Temperature 53 °F 33 °F 68 °F (1890)
Min Temperature 35 °F 16 °F -15 °F (1982)
Degree Days  
Heating Degree Days 21    
Moisture  
Dew Point 44 °F    
Average Humidity 92    
Maximum Humidity 100    
Minimum Humidity 60    
Precipitation  
Precipitation 0.59 in - - ()
Sea Level Pressure  
Sea Level Pressure 30.03 in    
Wind  
Wind Speed 9 mph (ESE)    
Max Wind Speed 14 mph    
Max Gust Speed -    
Visibility 4 miles    
Events Fog , Rain    
Averages and records for this station are not official NWS values.
T = Trace of Precipitation, MM = Missing Value Source: NWS Daily Summary

Daily Weather History Graph

Daily Weather History Graph

Search for Another Location

Airport or City:

Trip Planner

Search our weather history database for the weather conditions in past years. The results will help you decide how hot, cold, wet, or windy it might be!

Date:

Astronomy

Jan. 10, 2013 Rise Set
Actual Time 7:20 AM CST 4:58 PM CST
Civil Twilight 6:50 AM CST 5:28 PM CST
Nautical Twilight 6:17 AM CST 6:01 PM CST
Astronomical Twilight 5:45 AM CST 6:33 PM CST
Moon 6:00 AM CST (1/10) 4:06 PM CST (1/10)
Length of Visible Light 10h 37m
Length of Day
9h 38m
Waning Crescent, 2% of the Moon is Illuminated
Jan 10
Waning Crescent
Jan 11
New
Jan 18
First Quarter
Jan 26
Full
Feb 3
Last Quarter

Hourly Weather History & Observations

Time (CST) Temp. Windchill Dew Point Humidity Pressure Visibility Wind Dir Wind Speed Gust Speed Precip Events Conditions
12:54 AM 35.1 °F 28.6 °F 30.0 °F 82% 30.45 in 10.0 mi ESE 8.1 mph - N/A   Clear
1:54 AM 35.1 °F 29.3 °F 30.0 °F 82% 30.43 in 10.0 mi East 6.9 mph - N/A   Clear
2:54 AM 37.9 °F 32.1 °F 30.9 °F 76% 30.42 in 10.0 mi East 8.1 mph - N/A   Clear
3:54 AM 39.0 °F 33.4 °F 32.0 °F 76% 30.39 in 10.0 mi East 8.1 mph - N/A   Clear
4:54 AM 43.0 °F 36.8 °F 30.0 °F 60% 30.35 in 10.0 mi East 11.5 mph - N/A   Mostly Cloudy
5:54 AM 42.1 °F 36.6 °F 32.0 °F 67% 30.33 in 10.0 mi ESE 9.2 mph - 0.00 in Rain Light Rain
6:54 AM 41.0 °F 34.7 °F 33.1 °F 73% 30.31 in 10.0 mi East 10.4 mph - 0.01 in   Overcast
7:54 AM 42.1 °F 36.1 °F 33.1 °F 70% 30.30 in 10.0 mi ESE 10.4 mph - 0.00 in Rain Light Rain
8:17 AM 42.8 °F 37.5 °F 33.8 °F 70% 30.29 in 8.0 mi East 9.2 mph - 0.00 in Rain Light Rain
8:54 AM 42.1 °F 37.7 °F 36.0 °F 79% 30.27 in 10.0 mi East 6.9 mph - 0.01 in Rain Light Rain
9:54 AM 42.1 °F 36.6 °F 36.0 °F 79% 30.25 in 7.0 mi ESE 9.2 mph - 0.01 in Rain Light Rain
10:17 AM 41.0 °F 34.3 °F 37.4 °F 87% 30.22 in 1.8 mi East 11.5 mph - 0.03 in Rain Rain
10:42 AM 41.0 °F 35.2 °F 39.2 °F 93% 30.22 in 3.0 mi ESE 9.2 mph - 0.06 in Rain Light Rain
10:51 AM 41.0 °F 34.3 °F 39.2 °F 93% 30.21 in 4.0 mi ESE 11.5 mph - 0.06 in Rain Light Rain
10:54 AM 42.1 °F 35.7 °F 39.0 °F 89% 30.22 in 5.0 mi ESE 11.5 mph - 0.06 in   Overcast
11:18 AM 42.8 °F 36.2 °F 39.2 °F 87% 30.18 in 5.0 mi ESE 12.7 mph - 0.00 in   Overcast
11:54 AM 42.1 °F 35.2 °F 41.0 °F 96% 30.14 in 3.0 mi ESE 12.7 mph - 0.00 in   Overcast
12:13 PM 42.8 °F 35.8 °F 41.0 °F 93% 30.10 in 2.5 mi East 13.8 mph - N/A   Overcast
12:30 PM 42.8 °F 35.8 °F 41.0 °F 93% 30.09 in 1.8 mi East 13.8 mph - N/A   Overcast
12:39 PM 42.8 °F 36.2 °F 42.8 °F 100% 30.09 in 1.2 mi ESE 12.7 mph - N/A   Overcast
12:54 PM 43.0 °F 37.2 °F 42.1 °F 97% 30.11 in 1.0 mi SE 10.4 mph - N/A   Overcast
1:15 PM 44.6 °F 38.8 °F 42.8 °F 93% 30.07 in 0.8 mi ESE 11.5 mph - N/A   Overcast
1:54 PM 45.0 °F 38.9 °F 44.1 °F 97% 30.06 in 0.8 mi ESE 12.7 mph - N/A   Overcast
2:54 PM 46.0 °F 41.4 °F 45.0 °F 96% 30.02 in 0.2 mi East 9.2 mph - N/A Fog Fog
3:54 PM 46.0 °F 42.5 °F 45.0 °F 96% 30.00 in 0.2 mi East 6.9 mph - 0.00 in Fog , Rain Light Rain
4:50 PM 46.4 °F 43.5 °F 46.4 °F 100% 29.96 in 1.2 mi ENE 5.8 mph - 0.01 in   Overcast
4:54 PM 46.9 °F - 46.0 °F 97% 29.96 in 1.2 mi ENE 6.9 mph - 0.01 in   Overcast
5:54 PM 48.0 °F - 46.9 °F 96% 29.94 in 1.8 mi East 8.1 mph - 0.02 in Rain Light Rain
6:13 PM 48.2 °F - 48.2 °F 100% 29.94 in 2.0 mi East 5.8 mph - 0.01 in   Overcast
6:21 PM 48.2 °F - 46.4 °F 93% 29.93 in 1.8 mi East 6.9 mph - 0.01 in Rain Light Rain
6:54 PM 48.0 °F - 46.9 °F 96% 29.93 in 1.0 mi East 8.1 mph - 0.01 in   Overcast
7:04 PM 48.2 °F - 46.4 °F 93% 29.92 in 0.8 mi East 8.1 mph - N/A   Mist
7:54 PM 48.9 °F - 48.0 °F 97% 29.88 in 0.8 mi East 10.4 mph - N/A   Mist
8:18 PM 48.2 °F - 48.2 °F 100% 29.87 in 1.5 mi East 8.1 mph - 0.03 in Rain Light Rain
8:54 PM 50.0 °F - 48.9 °F 96% 29.84 in 1.5 mi East 11.5 mph - 0.27 in Rain Heavy Rain
9:07 PM 50.0 °F - 50.0 °F 100% 29.83 in 2.0 mi East 9.2 mph - 0.03 in Rain Light Rain
9:15 PM 50.0 °F - 50.0 °F 100% 29.83 in 0.8 mi ESE 6.9 mph - 0.04 in Rain Light Rain
9:25 PM 50.0 °F - 50.0 °F 100% 29.82 in 0.5 mi ESE 8.1 mph - 0.05 in Fog , Rain Light Rain
9:38 PM 51.8 °F - 50.0 °F 94% 29.81 in 1.2 mi ESE 6.9 mph - 0.06 in Rain Light Rain
9:54 PM 51.1 °F - 51.1 °F 100% 29.81 in 1.2 mi ESE 6.9 mph - 0.09 in Rain Rain
10:00 PM 51.8 °F - 51.8 °F 100% 29.80 in 2.5 mi ESE 6.9 mph - 0.01 in Rain Light Rain
10:08 PM 51.8 °F - 51.8 °F 100% 29.80 in 4.0 mi East 5.8 mph - 0.01 in Rain Light Rain
10:23 PM 51.8 °F - 51.8 °F 100% 29.79 in 1.8 mi East 6.9 mph - 0.02 in Rain Light Rain
10:31 PM 51.8 °F - 51.8 °F 100% 29.78 in 2.5 mi ESE 4.6 mph - 0.02 in   Overcast
10:54 PM 51.1 °F - 50.0 °F 96% 29.79 in 1.5 mi SW 5.8 mph - 0.03 in Rain Light Rain
11:08 PM 53.6 °F - 53.6 °F 100% 29.79 in 3.0 mi South 6.9 mph - 0.03 in Rain Light Rain
11:27 PM 51.8 °F - 51.8 °F 100% 29.78 in 2.5 mi Calm Calm - 0.06 in Rain Light Rain
11:37 PM 51.8 °F - 51.8 °F 100% 29.78 in 1.0 mi Calm Calm - 0.06 in Rain Light Rain
11:41 PM 51.8 °F - 51.8 °F 100% 29.78 in 0.8 mi Calm Calm - 0.07 in Rain Light Rain
11:52 PM 53.6 °F - 51.8 °F 94% 29.77 in 1.0 mi Calm Calm - 0.07 in Rain Light Rain
11:54 PM 53.1 °F - 52.0 °F 96% 29.78 in 1.0 mi Calm Calm - 0.07 in   Overcast